Regional Weather Roundup
Issued by NWS Northern Indiana

Home | Current Version | Previous Version | Text Only | Print | Product List | Glossary Off
Versions: 1 2 3 4 5 6 7 8 9 10 11 12 13 14 15 16 17 18 19 20 21 22 23 24 25 26 27 28 29 30 31 32 33 34 35 36 37 38 39 40 41 42 43 44 45 46 47 48 49 50

000
ASUS43 KIWX 192100
RWRIWX

KIWX WEATHER ROUNDUP
NATIONAL WEATHER SERVICE NORTHERN INDIANA
500 PM EDT THU OCT 19 2017

NOTE: "FAIR" INDICATES FEW OR NO CLOUDS BELOW 12,000 FEET WITH NO
SIGNIFICANT WEATHER AND/OR OBSTRUCTIONS TO VISIBILITY.

* THESE STATIONS ARE NOT UNDER NWS QUALITY CONTROL. THEY ALSO MAY NOT
  REPORT WEATHER SUCH AS PRECIPITATION OR FOG.

INZ001>027-192200-
NORTHERN INDIANA

CITY           SKY/WX    TMP DP  RH WIND       PRES   REMARKS
GARY*          PTSUNNY   64  34  32 NE6       30.19S
MICHIGAN CITY* SUNNY     63  37  39 N3        30.19F
LAPORTE*       SUNNY     65  33  30 N6        30.19S
KNOX*          SUNNY     68  34  28 N6        30.17S
SOUTH BEND     SUNNY     65  30  27 NW7       30.18S
ELKHART*       SUNNY     66  27  22 W8        30.18R
GOSHEN         SUNNY     67  32  27 NW9       30.17R
MONTICELLO*    SUNNY     74  49  40 W5        30.16S
WARSAW*        SUNNY     70  41  35 NW7       30.17S
AUBURN*        SUNNY     70  36  28 W9        30.17R
FORT WAYNE     PTSUNNY   71  49  45 W10       30.16S
PERU/GRISSOM   SUNNY     73  51  46 W8        30.16S

$$
INZ028>050-192200-
CENTRAL INDIANA

CITY           SKY/WX    TMP DP  RH WIND       PRES   REMARKS
LAFAYETTE      SUNNY     73  53  49 SW5       30.16S
KOKOMO*        SUNNY     73  52  47 SW9       30.18S
MUNCIE*        SUNNY     74  49  41 VRB7      30.17S
INDIANAPOLIS   MOSUNNY   74  51  44 SW10      30.18S

$$
MIZ043>046-050>051-056>058-064>065-071>073-077>080-192200-
SOUTHWEST LOWER MICHIGAN

CITY           SKY/WX    TMP DP  RH WIND       PRES   REMARKS
BATTLE CREEK   SUNNY     65  24  21 NW10      30.16R
BENTON HARBOR  MOSUNNY   62  35  36 W5        30.18S
COLDWATER*     SUNNY     67  27  22 W8        30.16R
HILLSDALE*     SUNNY     68  32  26 W12       30.14S
HOLLAND        SUNNY     63  34  33 W9        30.18R
GRAND RAPIDS   PTSUNNY   64  32  30 NW12      30.15R
KALAMAZOO      SUNNY     65  23  20 NW10      30.17R
STURGIS*       SUNNY     67  30  25 NW6       30.16S
THREE RIVERS*  FAIR      67  31  26 NW9       30.17S

$$
OHZ001>008-015>018-024>025-192200-
NORTHWEST OHIO

CITY           SKY/WX    TMP DP  RH WIND       PRES   REMARKS
DEFIANCE       SUNNY     71  40  32 W7        30.14S
FINDLAY        SUNNY     73  49  42 W14       30.13S
TOLEDO EXPRESS SUNNY     72  41  32 W13       30.12R
TOLEDO METCALF SUNNY     72  47  40 W16       30.12S
LIMA           SUNNY     72  50  45 W12       30.15S

$$
AND FOR LAKE MICHIGAN COASTAL AND OPEN LAKE BUOY OBSERVATIONS

STATION/POSITION TEMP    WIND        PRES    VSBY  WAVE
                 AIR SEA DIR/SP/G                  HT/PER
                 (F)     (DEG/KT/KT) (MB)    (MI)  (FT/S)
CALUMET HARBOR    60      90/  5/  7 1021.4R
MICHIGAN CITY     62      10/  3/  3   N/A
BURNS HARBOR      61      40/  5/  6 1022.7S
SAINT JOSEPH      61     290/  3/  5 1023.0
SOUTH LAKE BUOY   59 61  260/  6/  6 1021.8          1/ 4
4 MI NW BRIDGMAN  61 59  320/  2/  4 1022.4S         2/ 4
MICHIGAN CITY     60 59   30/  2/  4   N/A           1/ 4

$$
&&




USA.gov is the U.S. government's official web portal to all federal, state and local government web resources and services.